Overview Statistics Trail Chart Weather Telemetry Raw packets
 

This is the latest recevied weather packets stored in our database for station/object KW4UJ. If no packets are shown the sender has not sent any weather packets the latest 10 day(s).

<< 85 86 87 88 89 90 91 >>
Time Temp. Humidity Pressure Rain* Wind** Luminosity Snow
1788004586 20° C 80% 1023.4 hPa 0 mm - 41 W/m² -
1788004280 20° C 81% 1023.5 hPa 0 mm - 45 W/m² -
1788003979 20° C 83% 1023.6 hPa 0 mm - 41 W/m² -
1788003678 19.44° C 84% 1023.6 hPa 0 mm - 39 W/m² -
1788003379 19.44° C 86% 1023.6 hPa 0 mm - 32 W/m² -
1788003074 18.89° C 87% 1023.5 hPa 0 mm - 30 W/m² -
1788002773 18.89° C 88% 1023.5 hPa 0 mm - 28 W/m² -
1788002469 18.89° C 88% 1023.4 hPa 0 mm - 25 W/m² -
1788002164 18.89° C 88% 1023.4 hPa 0 mm - 23 W/m² -
1788001859 18.89° C 89% 1023.4 hPa 0 mm - 20 W/m² -
1788001560 18.89° C 90% 1023.3 hPa 0 mm - 17 W/m² -
1788001255 18.89° C 90% 1023.2 hPa 0 mm - 14 W/m² -
1788000954 18.89° C 90% 1023.1 hPa 0 mm - 11 W/m² -
1788000655 18.89° C 90% 1023.1 hPa 0 mm - 8 W/m² -
1788000350 18.89° C 90% 1023 hPa 0 mm - 5 W/m² -
1788000044 18.89° C 90% 1022.9 hPa 0 mm - 3 W/m² -
1787999741 18.89° C 90% 1022.8 hPa 0 mm - 2 W/m² -
1787999439 18.89° C 90% 1022.7 hPa 0 mm - 1 W/m² -
1787999138 18.89° C 90% 1022.5 hPa 0 mm - 0 W/m² -
1787998832 18.89° C 90% 1022.4 hPa 0 mm - 0 W/m² -
1787998531 19.44° C 90% 1022.4 hPa 0 mm - 0 W/m² -
1787998226 19.44° C 89% 1022 hPa 0 mm - 0 W/m² -
1787997921 19.44° C 89% 1022.3 hPa 0 mm - 0 W/m² -
1787997620 19.44° C 89% 1022.2 hPa 0 mm - 0 W/m² -
1787997319 19.44° C 89% 1021.9 hPa 0 mm - 0 W/m² -

* Rain latest hour (hover to see other rain measurements)
** Current wind speed in m/s (hover to see current wind gust speed)